Powrót do katalogu

IRIDIUM 24

AktywnyŁącznośćPO
NORAD 25105·PAYLOAD·🇺🇸 United States

Wystrzelony Dec 20, 1997 z Vandenberg Space Force Base

Loading…

Następne Przeloty (najbliższe 24 godziny)

TLE

ŚwieżeSource: Space-Track

Epoka: Sep 14, 2026, 10:30 UTC

1 25105U 97082B   26257.43799785  .00000279  00000-0  77892-4 0  9998
2 25105  86.3858 247.5259 0012114  27.0740 333.1090 14.42568980508690

Śledź IRIDIUM 24 w czasie rzeczywistym z AllMySat

Download on the App Store